OBJECT E, 64052

Orbit data source: Space-Track

You're viewing an Uncataloged Satellite

Recently launched and/or uncataloged satellites may have evolving metadata. Metadata may include but not limited to: Owner, Maufacturer, Bus, Motor, and Mission.

OBJECT E, 64052 is a Chinese satellite in SSO that was launched on Sat, 17 May 2025 UTC via a ZHUQUE-2E launch vehicle from the Jiuquan Satellite Launch Center, China (JSC). Unknown objects in Earth's orbit typically refer to objects detected orbiting the Earth but have not yet been identified or cataloged. These objects could be anything from previously untracked satellites, spent rocket stages, debris from satellite collisions, or even natural meteoroids temporarily captured by Earth's gravity.

Loading next visibility...
Identifier
64052, 2025-103E
Orbit
SSO
Last TLE update
9 hours ago
Origin
Flag of CNCTYK/YOUD (CN / PRC)
Manufacturer
Changsha Tianyi
Mission
Operational spacecraft
Bus & Motor
TY, Unknown motor
Mass
~50 kg wet, ~50 kg dry
Launch date (UTC)
2025-05-17 (1 month ago)
Launch vehicle
ZHUQUE-2E
Launch site
Jiuquan Satellite Launch Center, China (JSC)
Object type
Unknown
Shape & HBR
Unknown
Radar Cross Section
Medium (>0.1 m² and <1 m²)

Expand to show TLE details & history

TLE from 9 hours ago
0 OBJECT E
1 64052U 25103E   25169.90921525  .00002744  00000-0  14874-3 0  9998
2 64052  97.4151 244.7723 0003399  28.6910 331.4509 15.15407630  4949
Epoch: 2025-06-18T21:49Z
TLE epoch observation values (Epoch: 2025-06-18T21:49:16.197Z)
Latitude
-0.00003°
Longitude
10.07033°
Altitude
520.765 km
Speed
7.604 km/s
True Right ascension
16h 19m 05s
True Declination
0° 00' 00"
Sunlit
Object was in full shadow at epoch
Visualization orbit readout
Latitude
-28.43919°
Longitude
14.47143°
Altitude
529.15 km
Speed
7.598 km/s
Apparent Right ascension
13h 17m 36s
Apparent Declination
-72° 12' 46"
Sunlit
Object is in full shadow
Visualization observer readout
Local Sidereal Time
18:02:50
Azimuth
200.044° SSW
Elevation
-32.405°
Doppler factor
1
Orbital elements
Apogee altitude
519.057 km
Perigee altitude
514.37 km
Semi-major axis
6,894.851 km
Eccentricity
0.00034
Inclination
97.4151°
RAAN
244.7723°
Arg. of periapsis
28.691°
True anomaly
Unknown
Mean anomaly
331.4509°
Eccentric anomaly
Unknown
Mean motion
3.79102 °/min
Orbital period
94.96 mins
BSTAR
0.00014874
Loading maneuver chart data...
Loading SW <> Apogee altitude chart data...
Loading historical data...
Loading historical data...
Loading historical data...
Loading historical data...
Loading historical data...
Loading historical data...
Loading historical data...

OBJECT E Visibility forecast

Observer location: undefined°, undefined°

Span
Click to sort rows by Start time (UTC) header in descending order
Start Az.
Max El. time (UTC)
Max El. Az.
Max El.
End time (UTC)
End Az.
6 mins2025-06-19 17:24:14.167Z30.975° NE2025-06-19 17:27:14.167Z92.241° ESE31.528°2025-06-19 17:30:14.167Z163.175° S
5 mins2025-06-20 05:39:14.167Z214.571° SW2025-06-20 05:41:14.167Z262.614° W26.197°2025-06-20 05:44:14.167Z322.773° NNW
|